Content
SEND FEEDBACK

Daily
Averages
Monthly
Summary
United States of America

ANN ARBOR, MICHIGAN


Home > North America > United States > Michigan
Elevation: 759 feet     Latitude: 42 17N     Longitude: 083 43W

WEATHER
 
SELECT A DAY
Number of Records: 203,747;   Date Range: 1/1/95 - 8/17/14
 
SHARE

PRINT THIS DATA

[ ← Previous Day ]
WEATHER ALMANAC - JANUARY 10, 2013
[ Next Day → ]
[ °C ]   °F
Weather ElementAverageHighLow
Temperature31.2 °F39 °F (12:53 pm)19 °F (4:53 am)
Dewpoint24.7 °F32 °F (11:51 pm)16 °F (4:53 am)
Humidity78 %89 % (2:53 am)60 % (12:53 pm)
Barometer30.45 in30.59 in (9:53 am)30.17 in (11:51 pm)
Wind Speed4.9 mph11.5 mph (2:53 pm)
Weather ElementAverage
Visibility8.5 mi
Wind DirectionENE (84.2 °)

Weather ElementTotal
Precipitation0.05 in
Heating Degree Days36 (Base 65)
Averaged from 24 records on January 10, 2013
WEATHER CONDITIONS BREAKOUT
WIND DIRECTION BREAKOUT
WEATHER BY HOUR - JANUARY 10, 2013
[ °C ]   °F
Local TimeTemperatureDewpointHumidityBarometerVisibilityWind DirectionWind SpeedGust SpeedPrecipitationEventsConditions
1:53 AM24.1 °F21.0 °F88 %30.53 in10.0 miWest (260°)3.5 mphClear
2:53 AM21.9 °F19.0 °F89 %30.55 in8.0 miCalmClear
3:53 AM19.9 °F17.1 °F89 %30.55 in6.0 miCalmClear
4:53 AM19.0 °F16.0 °F88 %30.53 in9.0 miCalmClear
5:53 AM19.0 °F16.0 °F88 %30.54 in5.0 miCalmClear
6:53 AM19.9 °F16.0 °F85 %30.56 in10.0 miCalmClear
7:53 AM19.9 °F16.0 °F85 %30.57 in10.0 miCalmClear
8:53 AM21.9 °F19.0 °F89 %30.58 in10.0 miCalmClear
9:53 AM30.9 °F27.0 °F85 %30.59 in8.0 miCalmClear
10:53 AM37.0 °F27.0 °F67 %30.57 in10.0 miEast (90°)6.9 mphClear
11:53 AM37.9 °F26.1 °F62 %30.54 in10.0 miSE (130°)5.8 mphClear
12:53 PM39.0 °F26.1 °F60 %30.51 in10.0 miSE (140°)8.1 mphClear
1:53 PM39.0 °F26.1 °F60 %30.48 in10.0 miSE (130°)10.4 mphClear
2:53 PM37.9 °F27.0 °F65 %30.46 in10.0 miESE (120°)11.5 mphClear
3:53 PM37.9 °F28.0 °F68 %30.45 in10.0 miSE (130°)5.8 mphClear
4:53 PM37.0 °F28.0 °F70 %30.43 in10.0 miESE (120°)5.8 mphClear
5:53 PM36.0 °F27.0 °F70 %30.40 in10.0 miESE (110°)9.2 mphClear
6:53 PM36.0 °F28.0 °F73 %30.39 in10.0 miESE (110°)5.8 mphClear
7:53 PM36.0 °F28.0 °F73 %30.36 in10.0 miESE (120°)6.9 mphClear
8:53 PM36.0 °F28.9 °F76 %30.33 in6.0 miESE (120°)8.1 mph0.01 inRainLight Rain
9:53 PM35.1 °F30.9 °F85 %30.28 in8.0 miEast (90°)6.9 mph0.04 inOvercast
10:53 PM36.0 °F30.9 °F82 %30.23 in8.0 miESE (110°)8.1 mphOvercast
11:51 PM35.6 °F32.0 °F87 %30.17 in2.5 miESE (120°)6.9 mph0.00 inOvercast
11:53 PM35.1 °F32.0 °F89 %30.19 in2.5 miESE (120°)8.1 mph0.00 inOvercast
Hourly data recorded from KARB, located miles away from Ann Arbor, Michigan







STORIES FROM OUR PARTNERS